Location: Albany
(35.0170°S, 117.8920°E)
Time: 07:11:10
(UTC+08:00)

A-11 Canister half - Visible Passes

Search period start: 10 May 2021 00:00
Search period end: 20 May 2021 00:00
Orbit: 1514 x 1685 km, 47.2° (Epoch: 09 May)

Date Brightness Start Highest point End Pass type
(mag) Time Alt. Az. Time Alt. Az. Time Alt. Az.
10 May 10.8 02:02:00 21° ESE 02:02:00 21° ESE 02:05:10 10° ESE visible
10 May 9.0 04:00:14 73° SW 04:00:35 74° SSW 04:10:49 10° SE visible
10 May 9.7 05:58:27 13° WSW 06:07:04 43° S 06:16:32 10° ESE visible
11 May 11.1 01:40:38 15° ESE 01:40:38 15° ESE 01:42:06 10° ESE visible
11 May 9.2 03:38:50 69° SSE 03:38:50 69° SSE 03:47:51 10° SE visible
11 May 9.7 05:37:04 20° WSW 05:44:00 43° S 05:53:30 10° ESE visible
12 May 9.5 03:17:24 55° SE 03:17:24 55° SE 03:24:54 10° SE visible
12 May 9.6 05:15:37 26° WSW 05:20:56 44° S 05:30:30 10° ESE visible
13 May 9.9 02:55:55 42° SE 02:55:55 42° SE 03:01:56 10° SE visible
13 May 9.6 04:54:07 34° WSW 04:57:52 45° SSW 05:07:29 10° ESE visible
14 May 10.3 02:34:23 32° SE 02:34:23 32° SE 02:38:58 10° SE visible
14 May 9.5 04:32:35 41° SW 04:34:48 46° SSW 04:44:28 10° ESE visible
15 May 10.7 02:12:49 24° SE 02:12:49 24° SE 02:16:00 10° SE visible
15 May 9.5 04:11:02 46° SSW 04:11:44 47° SSW 04:21:29 10° ESE visible
15 May 9.8 06:09:14 10° WSW 06:18:54 44° S 06:28:22 10° E visible
16 May 11.0 01:51:14 17° SE 01:51:14 17° SE 01:53:01 10° SE visible
16 May 9.6 03:49:27 47° S 03:49:27 47° S 03:58:28 10° ESE visible
16 May 9.8 05:47:39 15° WSW 05:55:50 43° S 06:05:18 10° E visible
17 May 11.3 01:29:38 12° ESE 01:29:38 12° ESE 01:30:04 10° ESE visible
17 May 9.8 03:27:50 44° SSE 03:27:50 44° SSE 03:35:28 10° ESE visible
17 May 9.8 05:26:02 20° SW 05:32:45 43° S 05:42:14 10° ESE visible
18 May 10.0 03:06:13 37° SSE 03:06:13 37° SSE 03:12:28 10° SE visible
18 May 9.8 05:04:26 26° SW 05:09:41 42° S 05:19:09 10° ESE visible
19 May 10.4 02:44:36 30° SE 02:44:36 30° SE 02:49:28 10° SE visible
19 May 9.8 04:42:48 32° SW 04:46:37 42° S 04:56:05 10° ESE visible
